AirNav   Everest Fuels
 
 1212 users online  

5F5 Bluebird Hill Airport
Keithville, Louisiana, USA

GOING TO KEITHVILLE?


FAA INFORMATION EFFECTIVE 16 JULY 2020

Location

FAA Identifier: 5F5
Lat/Long: 32-20-40.5600N 093-47-59.6300W
32-20.676000N 093-47.993833W
32.3446000,-93.7998972
(estimated)
Elevation: 180 ft. / 55 m (estimated)
Variation: 05E (1985)
From city: 2 miles NE of KEITHVILLE, LA
Time zone: UTC -5 (UTC -6 during Standard Time)
Zip code: 71047

Airport Operations

Airport use: Open to the public
Activation date: 11/1972
Control tower: no
ARTCC: FORT WORTH CENTER
FSS: DE RIDDER FLIGHT SERVICE STATION
NOTAMs facility: DRI (NOTAM-D service available)
Attendance: CONTINUOUS
Wind indicator: yes
Segmented circle: no
Lights: FOR LIRL RWY 18/36 CALL 318-925-2302.
Beacon: white-green (lighted land airport)
FOR ROTG BCN CALL 318-925-2302.

Airport Communications

CTAF: 122.9
WX ASOS at SHV (6 nm N): 128.45 (318-636-5767)
WX ASOS at DTN (12 nm N): 118.525 (318-425-7967)
WX AWOS-3PT at 3F3 (16 nm S): 119.125 (318-872-3537)

Nearby radio navigation aids

VOR radial/distance  VOR name  Freq  Var
EMGr245/10.9ELM GROVE VORTAC111.2007E
EICr172/25.6BELCHER VORTAC117.4007E

 
NDB name  Hdg/Dist  Freq  Var  ID
CARTHAGE065/27.133204ERPF .-. .--. ..-.
AMASON026/35.634104ECZJ -.-. --.. .---

Airport Services

Parking: hangars and tiedowns
Airframe service: MINOR
Powerplant service: MINOR
Bottled oxygen: NONE
Bulk oxygen: NONE

Runway Information

Runway 18/36

Dimensions: 3000 x 40 ft. / 914 x 12 m
RWY 18/36 430 FT ASPH ON RWY 18 END, 2570 FT TURF ON RWY 36 END.
Surface: asphalt/turf, in good condition
Runway edge lights: low intensity
Operational restrictions: CLSD SS-SR.
RUNWAY 18  RUNWAY 36
Latitude: 32-20.923000N32-20.429000N
Longitude: 093-47.993833W093-47.993833W
Traffic pattern: leftleft
Displaced threshold: 430 ft.
RWY 18/36 DSPLCD THRS MKD WITH ONE ORANGE CONE ON EACH SIDE. RWY ENDS STOP AT 50 FT: TREES.
850 ft.
Obstructions: 57 ft. trees, 309 ft. from runway, 1:1 slope to clear
+ 32 FT MKD PWR LINES BOTH SIDES OF CNTRLN 156 FT FM RWY END.
112 ft. trees, 2554 ft. from runway, 20:1 slope to clear
APCH RATIO 20:1 TO DSPLCD THR.

Airport Ownership and Management from official FAA records

Ownership: Privately-owned
Owner: HUGH R HUNTON
2569 BARRON ROAD
KEITHVILLE, LA 71047
Phone 318-925-2302
Manager: HUGH R HUNTON
2569 BARRON ROAD
KEITHVILLE, LA 71047
Phone 318-925-2302
TELEPHONE NUMBER FOR HUGH HUNTON.

Airport Operational Statistics

Aircraft based on the field: 17
Single engine airplanes: 14
Gliders airplanes: 1
Ultralights: 2
    
Aircraft operations: avg 79/month *
84% local general aviation
16% transient general aviation
* for 12-month period ending 12 December 2018

Additional Remarks

FOR CD CTC FORT WORTH ARTCC AT 817-858-7584.

Instrument Procedures

There are no published instrument procedures at 5F5.

Some nearby airports with instrument procedures:

KSHV - Shreveport Regional Airport (6 nm N)
KBAD - Barksdale Air Force Base (12 nm NE)
KDTN - Shreveport Downtown Airport (12 nm N)
3F3 - C E 'Rusty' Williams Airport (16 nm S)
4F2 - Panola County Airport-Sharpe Field (27 nm W)
 
Loc | Ops | Rwys | IFR | FBO | Links
Com | Nav | Svcs | Stats | Notes
Area around 5F5 (Bluebird Hill Airport)
 
Road maps at: MapQuest Bing Google
 
Aerial photo
WARNING: Photo may not be current or correct
Aerial photo of 5F5 (Bluebird Hill Airport)
Photo by Carl Hennigan
Taken in April 2007

Do you have a better or more recent aerial photo of Bluebird Hill Airport that you would like to share? If so, please send us your photo.

 
Sectional chart

 
Airport distance calculator
Flying to Bluebird Hill Airport? Find the distance to fly.

From to 5F5

Sunrise and sunset
Times for 07-Aug-2020
 Local
(UTC-5)
 Zulu
(UTC)
Morning civil twilight06:0911:09
Sunrise06:3611:36
Sunset20:0601:06
Evening civil twilight20:3201:32

Current date and time
Zulu (UTC)  07-Aug-2020 21:40:31
Local (UTC-5)  07-Aug-2020 16:40:31
 
METAR
KSHV 
7nm N 
072121Z 10004KT 10SM VCTS SCT045 BKN080 32/23 A3005 RMK AO2 LTG DSNT SW AND W TSB00E15 TS MOV SW T03220233
KBAD 
12nm NE 
072055Z 12007KT 10SM FEW038 BKN160 34/24 A3005 RMK AO2A SLP177 57011 $
KDTN 
13nm N 
072053Z 06008KT 10SM CLR 34/24 A3005 RMK AO2 LTG DSNT SW AND W SLP172 T03390239 58010
K3F3 
16nm S 
072115Z AUTO 06007KT 10SM VCTS BKN036 BKN044 33/24 A3009 RMK AO2 LTG DSNT NW T03340244
TAF
KSHV 
7nm N 
071755Z 0718/0818 10005KT P6SM SCT035 SCT150 BKN250 FM072000 08006KT P6SM VCTS BKN040CB FM080000 12004KT P6SM SCT120 SCT250 FM081500 19005KT P6SM SCT250
KBAD 
12nm NE 
071800Z 0718/0824 15006KT 9999 SCT050 BKN150 QNH3001INS BECMG 0801/0802 13004KT 9999 SCT250 QNH3003INS WND 20006KT AFT 0816 TX33/0722Z TN23/0811Z
NOTAMs
Click for the latest NOTAMs
NOTAMs are issued by the DoD/FAA and will open in a separate window not controlled by AirNav.

 

 
 

Would you like to see your business listed on this page?

 If your business provides an interesting product or service to pilots, flight crews, aircraft, or users of the Bluebird Hill Airport, you should consider listing it here.  To start the listing process, click on the button below
 
Add a business
 

Other Pages about Bluebird Hill Airport

Update a link
 
Copyright © AirNav, LLC. All rights reserved. Privacy Policy  Contact